sat.trackr.live / text

‹ back to catalog

STARLINK-3772

NORAD 52290 · 2022-041AF

PAYLOAD ACTIVE UNKNOWN

§ Identity

Operator
Country
US
Launch date
2022-04-21
Launch site
AFETR
Launch vehicle
Mass (kg)
RCS (m²)

Purposes: comms

External: N2YO · Heavens-Above · Gunter

§ Orbital elements

Epoch: 2026-09-20T03:01:58.463040Z

Period
93.85 min
Inclination
53.1595°
Eccentricity
0.0001257
Mean motion
15.34387375 rev/d
Perigee alt
461.9 km
Apogee alt
463.6 km
Semi-major
6,840.9 km
B*
2.3246e-5
RAAN
293.2270°
Arg perigee
92.4594°
Mean anomaly
267.6552°
Rev number
24,403

§ Raw data

STARLINK-37721 52290U 22041AF  26263.12637110  .00000409  00000+0  23246-4 0  99902 52290  53.1595 293.2270 0001257  92.4594 267.6552 15.34387375244033

JSON: /api/v1/satellites/52290 · /tle

For live sub-satellite position, see the globe view (requires WebGL).

§ Visibility from observer

Set your observer location to see the next 7 days of passes ≥ 10°. The values pass through the URL so the page stays shareable.

No JS? Fill the form by hand. The geolocation button needs JavaScript.